This is the latest recevied weather packets stored in our database for station/object AC2VK-1. If no packets are shown the sender has not sent any weather packets the latest 10 day(s).
| Time | Temp. | Humidity | Pressure | Rain* | Wind** | Luminosity | Snow |
|---|---|---|---|---|---|---|---|
| 1777949358 | 18.33° C | 60% | 1015.2 hPa | 0 mm | - | - | - |
| 1777948758 | 18.89° C | 59% | 1015.3 hPa | 0 mm | - | - | - |
| 1777948158 | 18.89° C | 59% | 1015.4 hPa | 0 mm | - | - | - |
| 1777947558 | 18.89° C | 59% | 1015.3 hPa | 0 mm | - | - | - |
| 1777946958 | 18.89° C | 59% | 1015.3 hPa | 0 mm | - | - | - |
| 1777946358 | 19.44° C | 59% | 1015.1 hPa | 0 mm | - | - | - |
| 1777945758 | 19.44° C | 58% | 1015.1 hPa | 0 mm | - | - | - |
| 1777945158 | 19.44° C | 58% | 1015.1 hPa | 0 mm | - | - | - |
| 1777944558 | 19.44° C | 58% | 1015 hPa | 0 mm | - | - | - |
| 1777943958 | 20° C | 57% | 1014.9 hPa | 0 mm | - | - | - |
| 1777943358 | 20° C | 56% | 1014.8 hPa | 0 mm | - | - | - |
| 1777942758 | 20.56° C | 54% | 1014.8 hPa | 0 mm | - | - | - |
| 1777942158 | 21.11° C | 53% | 1014.6 hPa | 0 mm | - | - | - |
| 1777941558 | 21.11° C | 52% | 1014.5 hPa | 0 mm | - | - | - |
| 1777940958 | 21.67° C | 50% | 1014.5 hPa | 0 mm | - | - | - |
| 1777940358 | 21.67° C | 50% | 1014.5 hPa | 0 mm | - | - | - |
| 1777939758 | 22.22° C | 49% | 1014.5 hPa | 0 mm | - | - | - |
| 1777939158 | 22.22° C | 47% | 1014.5 hPa | 0 mm | - | - | - |
| 1777938558 | 22.78° C | 47% | 1014.5 hPa | 0 mm | - | - | - |
| 1777937958 | 22.78° C | 46% | 1014.4 hPa | 0 mm | - | - | - |
| 1777937358 | 23.33° C | 46% | 1014.4 hPa | 0 mm | - | - | - |
| 1777936758 | 24.44° C | 46% | 1014.3 hPa | 0 mm | - | - | - |
| 1777936158 | 24.44° C | 46% | 1014.2 hPa | 0 mm | - | - | - |
| 1777935558 | 24.44° C | 46% | 1014.2 hPa | 0 mm | - | - | - |
| 1777934959 | 24.44° C | 46% | 1014.2 hPa | 0 mm | - | - | - |
* Rain latest hour (hover to see other rain measurements)
** Current wind speed in m/s (hover to see current wind gust speed)